Time,TemperatureF,DewpointF,PressureIn,WindDirection,WindDirectionDegrees,WindSpeedMPH,WindSpeedGustMPH,Humidity,HourlyPrecipIn,Conditions,Clouds,dailyrainin,SolarRadiationWatts/m^2,SoftwareType,DateUTC
2013-11-18 00:02:00,47.6,41.4,30.19,NE,38,5.0,7.0,79,0.00,,,0.00,0,Wunderground v.1.15,2013-11-17 22:02:00,
2013-11-18 00:12:00,47.6,41.4,30.19,ENE,61,5.0,5.0,79,0.00,,,0.00,0,Wunderground v.1.15,2013-11-17 22:12:00,
2013-11-18 00:22:00,47.4,41.2,30.19,ENE,65,4.0,4.0,79,0.00,,,0.00,0,Wunderground v.1.15,2013-11-17 22:22:00,
2013-11-18 00:32:00,47.3,41.4,30.19,ENE,74,4.0,5.0,80,0.00,,,0.00,0,Wunderground v.1.15,2013-11-17 22:32:00,
2013-11-18 00:42:00,47.2,41.3,30.19,ENE,61,3.0,4.0,80,0.00,,,0.00,0,Wunderground v.1.15,2013-11-17 22:42:00,
2013-11-18 00:52:00,47.1,41.2,30.19,ENE,62,2.0,2.0,80,0.00,,,0.00,0,Wunderground v.1.15,2013-11-17 22:52:00,
2013-11-18 01:02:00,46.9,41.1,30.19,ENE,57,2.0,3.0,80,0.00,,,0.00,0,Wunderground v.1.15,2013-11-17 23:02:00,
2013-11-18 01:12:00,46.9,41.1,30.19,NNE,26,4.0,4.0,80,0.00,,,0.00,0,Wunderground v.1.15,2013-11-17 23:12:00,
2013-11-18 01:22:00,47.0,41.1,30.19,North,9,4.0,4.0,80,0.00,,,0.00,0,Wunderground v.1.15,2013-11-17 23:22:00,
2013-11-18 01:32:00,47.0,40.8,30.19,East,84,3.0,3.0,79,0.00,,,0.00,0,Wunderground v.1.15,2013-11-17 23:32:00,
2013-11-18 01:42:00,46.8,41.0,30.20,ENE,77,1.0,2.0,80,0.00,,,0.00,0,Wunderground v.1.15,2013-11-17 23:42:00,
2013-11-18 01:52:00,46.8,41.0,30.20,ENE,76,3.0,4.0,80,0.00,,,0.00,0,Wunderground v.1.15,2013-11-17 23:52:00,
2013-11-18 02:02:00,46.9,41.1,30.20,East,96,2.0,2.0,80,0.00,,,0.00,0,Wunderground v.1.15,2013-11-18 00:02:00,
2013-11-18 02:12:00,46.8,41.0,30.20,NNE,15,3.0,5.0,80,0.00,,,0.00,0,Wunderground v.1.15,2013-11-18 00:12:00,
2013-11-18 02:22:00,46.9,41.1,30.20,NNE,22,5.0,8.0,80,0.00,,,0.00,0,Wunderground v.1.15,2013-11-18 00:22:00,
2013-11-18 02:32:00,47.1,40.9,30.20,NE,44,7.0,7.0,79,0.00,,,0.00,0,Wunderground v.1.15,2013-11-18 00:32:00,
2013-11-18 02:42:00,47.2,40.7,30.20,NNE,27,7.0,8.0,78,0.00,,,0.00,0,Wunderground v.1.15,2013-11-18 00:42:00,
2013-11-18 02:52:00,47.2,40.7,30.20,NNE,15,5.0,5.0,78,0.00,,,0.00,0,Wunderground v.1.15,2013-11-18 00:52:00,
2013-11-18 03:02:00,47.1,40.6,30.20,NNE,22,5.0,5.0,78,0.00,,,0.00,0,Wunderground v.1.15,2013-11-18 01:02:00,
2013-11-18 03:12:00,47.1,40.9,30.20,NNE,29,6.0,6.0,79,0.00,,,0.00,0,Wunderground v.1.15,2013-11-18 01:12:00,
2013-11-18 03:22:00,47.2,41.0,30.20,NE,44,7.0,7.0,79,0.00,,,0.00,0,Wunderground v.1.15,2013-11-18 01:22:00,
2013-11-18 03:42:00,47.3,41.1,30.20,NNE,22,6.0,6.0,79,0.00,,,0.00,0,Wunderground v.1.15,2013-11-18 01:42:00,
2013-11-18 03:52:00,47.2,41.0,30.20,NNE,15,5.0,6.0,79,0.00,,,0.00,0,Wunderground v.1.15,2013-11-18 01:52:00,
2013-11-18 04:02:00,47.2,41.0,30.19,NE,37,5.0,5.0,79,0.00,,,0.00,0,Wunderground v.1.15,2013-11-18 02:02:00,
2013-11-18 04:12:00,47.2,41.3,30.19,North,9,6.0,8.0,80,0.00,,,0.00,0,Wunderground v.1.15,2013-11-18 02:12:00,
2013-11-18 04:22:00,47.3,41.4,30.19,NNE,14,7.0,9.0,80,0.00,,,0.00,0,Wunderground v.1.15,2013-11-18 02:22:00,
2013-11-18 04:32:00,47.4,41.5,30.19,NNE,31,7.0,7.0,80,0.00,,,0.00,0,Wunderground v.1.15,2013-11-18 02:32:00,
2013-11-18 04:42:00,47.4,41.5,30.19,NNE,17,7.0,9.0,80,0.00,,,0.00,0,Wunderground v.1.15,2013-11-18 02:42:00,
2013-11-18 04:52:00,47.5,41.6,30.19,NNE,32,7.0,8.0,80,0.00,,,0.00,0,Wunderground v.1.15,2013-11-18 02:52:00,
2013-11-18 05:02:00,47.6,41.7,30.19,NNE,26,7.0,7.0,80,0.00,,,0.00,0,Wunderground v.1.15,2013-11-18 03:02:00,
2013-11-18 05:12:00,47.5,41.6,30.19,NNE,26,7.0,8.0,80,0.00,,,0.00,0,Wunderground v.1.15,2013-11-18 03:12:00,
2013-11-18 05:22:00,47.6,41.7,30.19,NNE,21,7.0,7.0,80,0.00,,,0.00,0,Wunderground v.1.15,2013-11-18 03:22:00,
2013-11-18 05:32:00,47.6,41.7,30.19,NNE,25,6.0,9.0,80,0.00,,,0.00,0,Wunderground v.1.15,2013-11-18 03:32:00,
2013-11-18 05:42:00,47.5,41.6,30.19,NNE,18,5.0,6.0,80,0.00,,,0.00,0,Wunderground v.1.15,2013-11-18 03:42:00,
2013-11-18 06:02:00,47.5,41.6,30.19,NNE,26,5.0,6.0,80,0.00,,,0.00,0,Wunderground v.1.15,2013-11-18 04:02:00,
2013-11-18 06:12:00,47.6,41.7,30.19,NNE,20,5.0,8.0,80,0.00,,,0.00,0,Wunderground v.1.15,2013-11-18 04:12:00,
2013-11-18 06:22:00,47.4,41.9,30.19,North,9,5.0,5.0,81,0.00,,,0.00,0,Wunderground v.1.15,2013-11-18 04:22:00,
2013-11-18 06:42:00,47.4,41.9,30.20,NNE,30,5.0,5.0,81,0.00,,,0.00,0,Wunderground v.1.15,2013-11-18 04:42:00,
2013-11-18 06:52:00,47.5,42.0,30.20,NE,34,4.0,5.0,81,0.00,,,0.00,0,Wunderground v.1.15,2013-11-18 04:52:00,
2013-11-18 07:02:00,47.6,42.4,30.20,NNE,23,4.0,6.0,82,0.00,,,0.00,9,Wunderground v.1.15,2013-11-18 05:02:00,
2013-11-18 07:12:00,47.7,42.5,30.20,NNE,26,5.0,5.0,82,0.00,,,0.00,14,Wunderground v.1.15,2013-11-18 05:12:00,
2013-11-18 07:22:00,48.0,42.4,30.20,ENE,63,4.0,5.0,81,0.00,,,0.00,19,Wunderground v.1.15,2013-11-18 05:22:00,
2013-11-18 07:32:00,48.1,42.5,30.21,NE,39,5.0,5.0,81,0.00,,,0.00,23,Wunderground v.1.15,2013-11-18 05:32:00,
2013-11-18 07:42:00,48.4,42.5,30.21,ENE,58,5.0,5.0,80,0.00,,,0.00,35,Wunderground v.1.15,2013-11-18 05:42:00,
2013-11-18 07:52:00,48.6,42.7,30.21,NNE,27,5.0,5.0,80,0.00,,,0.00,65,Wunderground v.1.15,2013-11-18 05:52:00,
2013-11-18 08:02:00,49.1,43.2,30.21,ENE,65,3.0,4.0,80,0.00,,,0.00,95,Wunderground v.1.15,2013-11-18 06:02:00,
2013-11-18 08:12:00,49.1,42.9,30.22,North,10,4.0,5.0,79,0.00,,,0.00,123,Wunderground v.1.15,2013-11-18 06:12:00,
2013-11-18 08:22:00,49.4,43.2,30.22,East,79,5.0,5.0,79,0.00,,,0.00,148,Wunderground v.1.15,2013-11-18 06:22:00,
2013-11-18 08:32:00,49.7,43.5,30.22,NE,34,6.0,6.0,79,0.00,,,0.00,176,Wunderground v.1.15,2013-11-18 06:32:00,
2013-11-18 08:42:00,50.2,43.6,30.22,ENE,78,6.0,9.0,78,0.00,,,0.00,199,Wunderground v.1.15,2013-11-18 06:42:00,
2013-11-18 08:52:00,50.9,43.9,30.22,ENE,72,5.0,8.0,77,0.00,,,0.00,221,Wunderground v.1.15,2013-11-18 06:52:00,
2013-11-18 09:02:00,50.9,43.6,30.22,NE,36,7.0,7.0,76,0.00,,,0.00,241,Wunderground v.1.15,2013-11-18 07:02:00,
2013-11-18 09:12:00,51.0,43.7,30.22,ENE,62,7.0,10.0,76,0.00,,,0.00,260,Wunderground v.1.15,2013-11-18 07:12:00,
2013-11-18 09:22:00,51.1,43.4,30.22,ENE,57,10.0,10.0,75,0.00,,,0.00,279,Wunderground v.1.15,2013-11-18 07:22:00,
2013-11-18 09:32:00,51.7,44.0,30.22,NE,44,8.0,10.0,75,0.00,,,0.00,295,Wunderground v.1.15,2013-11-18 07:32:00,
2013-11-18 09:52:00,52.4,44.4,30.23,NE,53,10.0,13.0,74,0.00,,,0.00,336,Wunderground v.1.15,2013-11-18 07:52:00,
2013-11-18 10:02:00,52.7,43.9,30.22,NNE,24,12.0,12.0,72,0.00,,,0.00,352,Wunderground v.1.15,2013-11-18 08:02:00,
2013-11-18 10:12:00,53.0,44.2,30.22,NE,47,11.0,11.0,72,0.00,,,0.00,362,Wunderground v.1.15,2013-11-18 08:12:00,
2013-11-18 10:22:00,53.8,44.6,30.22,North,355,8.0,8.0,71,0.00,,,0.00,378,Wunderground v.1.15,2013-11-18 08:22:00,
2013-11-18 10:32:00,53.9,44.7,30.22,NE,44,9.0,9.0,71,0.00,,,0.00,385,Wunderground v.1.15,2013-11-18 08:32:00,
2013-11-18 10:42:00,54.4,44.8,30.22,North,11,8.0,8.0,70,0.00,,,0.00,401,Wunderground v.1.15,2013-11-18 08:42:00,
2013-11-18 10:52:00,54.1,44.2,30.21,NNE,17,9.0,10.0,69,0.00,,,0.00,411,Wunderground v.1.15,2013-11-18 08:52:00,
2013-11-18 11:02:00,54.0,44.4,30.21,NNE,17,8.0,13.0,70,0.00,,,0.00,418,Wunderground v.1.15,2013-11-18 09:02:00,
2013-11-18 11:12:00,55.1,44.7,30.21,NNE,17,9.0,9.0,68,0.00,,,0.00,431,Wunderground v.1.15,2013-11-18 09:12:00,
2013-11-18 11:22:00,55.2,44.4,30.20,North,5,9.0,13.0,67,0.00,,,0.00,448,Wunderground v.1.15,2013-11-18 09:22:00,
2013-11-18 11:32:00,55.3,44.5,30.20,NE,38,12.0,12.0,67,0.00,,,0.00,496,Wunderground v.1.15,2013-11-18 09:32:00,
2013-11-18 11:42:00,55.2,44.4,30.20,NNE,29,12.0,12.0,67,0.00,,,0.00,468,Wunderground v.1.15,2013-11-18 09:42:00,
2013-11-18 11:52:00,54.9,43.7,30.19,NE,43,11.0,11.0,66,0.00,,,0.00,464,Wunderground v.1.15,2013-11-18 09:52:00,
2013-11-18 12:02:00,55.5,44.3,30.19,NNE,32,11.0,11.0,66,0.00,,,0.00,441,Wunderground v.1.15,2013-11-18 10:02:00,
2013-11-18 12:22:00,56.4,44.8,30.19,NE,46,8.0,8.0,65,0.00,,,0.00,434,Wunderground v.1.15,2013-11-18 10:22:00,
2013-11-18 12:32:00,56.2,44.6,30.18,North,360,9.0,17.0,65,0.00,,,0.00,438,Wunderground v.1.15,2013-11-18 10:32:00,
2013-11-18 12:42:00,55.8,44.2,30.18,NNW,328,14.0,14.0,65,0.00,,,0.00,424,Wunderground v.1.15,2013-11-18 10:42:00,
2013-11-18 12:52:00,55.7,44.1,30.18,NNE,26,13.0,14.0,65,0.00,,,0.00,413,Wunderground v.1.15,2013-11-18 10:52:00,
2013-11-18 13:02:00,56.1,44.1,30.18,NNE,22,11.0,15.0,64,0.00,,,0.00,401,Wunderground v.1.15,2013-11-18 11:02:00,
2013-11-18 13:12:00,56.2,44.2,30.18,NNE,25,10.0,10.0,64,0.00,,,0.00,394,Wunderground v.1.15,2013-11-18 11:12:00,
2013-11-18 13:22:00,56.6,44.6,30.18,East,85,10.0,10.0,64,0.00,,,0.00,383,Wunderground v.1.15,2013-11-18 11:22:00,
2013-11-18 13:42:00,55.9,43.9,30.17,NNE,26,11.0,14.0,64,0.00,,,0.00,353,Wunderground v.1.15,2013-11-18 11:42:00,
2013-11-18 13:52:00,55.8,43.8,30.17,NNE,17,11.0,11.0,64,0.00,,,0.00,341,Wunderground v.1.15,2013-11-18 11:52:00,
2013-11-18 14:02:00,56.0,44.4,30.17,NNE,12,11.0,14.0,65,0.00,,,0.00,322,Wunderground v.1.15,2013-11-18 12:02:00,
2013-11-18 14:12:00,55.4,43.4,30.17,NE,55,12.0,12.0,64,0.00,,,0.00,308,Wunderground v.1.15,2013-11-18 12:12:00,
2013-11-18 14:22:00,55.7,43.7,30.17,NNE,23,9.0,12.0,64,0.00,,,0.00,288,Wunderground v.1.15,2013-11-18 12:22:00,
2013-11-18 14:32:00,55.5,43.5,30.17,NNE,15,13.0,13.0,64,0.00,,,0.00,267,Wunderground v.1.15,2013-11-18 12:32:00,
2013-11-18 14:42:00,55.6,43.6,30.17,North,360,13.0,14.0,64,0.00,,,0.00,246,Wunderground v.1.15,2013-11-18 12:42:00,
2013-11-18 14:52:00,55.4,43.4,30.17,North,355,16.0,16.0,64,0.00,,,0.00,220,Wunderground v.1.15,2013-11-18 12:52:00,
2013-11-18 15:02:00,55.3,43.3,30.17,NNE,22,12.0,12.0,64,0.00,,,0.00,192,Wunderground v.1.15,2013-11-18 13:02:00,
2013-11-18 15:12:00,55.2,43.6,30.17,North,360,13.0,13.0,65,0.00,,,0.00,167,Wunderground v.1.15,2013-11-18 13:12:00,
2013-11-18 15:22:00,54.8,43.7,30.17,NNE,30,13.0,13.0,66,0.00,,,0.00,137,Wunderground v.1.15,2013-11-18 13:22:00,
2013-11-18 15:32:00,54.4,43.3,30.17,NNE,15,13.0,18.0,66,0.00,,,0.00,109,Wunderground v.1.15,2013-11-18 13:32:00,
2013-11-18 15:42:00,54.3,43.6,30.18,NNE,19,10.0,10.0,67,0.00,,,0.00,84,Wunderground v.1.15,2013-11-18 13:42:00,
2013-11-18 15:52:00,54.0,43.3,30.18,North,355,11.0,11.0,67,0.00,,,0.00,62,Wunderground v.1.15,2013-11-18 13:52:00,
2013-11-18 16:02:00,53.7,43.4,30.18,NNE,22,11.0,12.0,68,0.00,,,0.00,40,Wunderground v.1.15,2013-11-18 14:02:00,
2013-11-18 16:12:00,53.1,43.6,30.18,NNE,27,12.0,12.0,70,0.00,,,0.00,23,Wunderground v.1.15,2013-11-18 14:12:00,
2013-11-18 16:22:00,52.8,43.7,30.18,NNE,26,12.0,12.0,71,0.00,,,0.00,16,Wunderground v.1.15,2013-11-18 14:22:00,
2013-11-18 16:32:00,52.5,43.7,30.19,NE,34,9.0,9.0,72,0.00,,,0.00,11,Wunderground v.1.15,2013-11-18 14:32:00,
2013-11-18 16:42:00,52.2,44.5,30.19,NNE,17,12.0,13.0,75,0.00,,,0.00,5,Wunderground v.1.15,2013-11-18 14:42:00,
2013-11-18 16:52:00,51.8,44.1,30.19,NNE,23,10.0,18.0,75,0.00,,,0.00,0,Wunderground v.1.15,2013-11-18 14:52:00,
2013-11-18 17:12:00,51.4,44.4,30.19,NNE,15,10.0,10.0,77,0.00,,,0.00,0,Wunderground v.1.15,2013-11-18 15:12:00,
2013-11-18 17:22:00,51.2,44.6,30.19,North,360,9.0,9.0,78,0.00,,,0.00,0,Wunderground v.1.15,2013-11-18 15:22:00,
2013-11-18 17:32:00,51.0,44.4,30.19,NE,55,10.0,10.0,78,0.00,,,0.00,0,Wunderground v.1.15,2013-11-18 15:32:00,
2013-11-18 17:52:00,50.8,44.5,30.20,NNE,20,10.0,14.0,79,0.00,,,0.00,0,Wunderground v.1.15,2013-11-18 15:52:00,
2013-11-18 18:02:00,51.0,45.0,30.20,North,360,10.0,10.0,80,0.00,,,0.00,0,Wunderground v.1.15,2013-11-18 16:02:00,
2013-11-18 18:12:00,50.8,44.5,30.20,NNW,332,11.0,11.0,79,0.00,,,0.00,0,Wunderground v.1.15,2013-11-18 16:12:00,
2013-11-18 18:22:00,50.7,44.8,30.20,NNE,26,11.0,11.0,80,0.00,,,0.00,0,Wunderground v.1.15,2013-11-18 16:22:00,
2013-11-18 18:32:00,50.6,44.7,30.20,North,349,9.0,10.0,80,0.00,,,0.00,0,Wunderground v.1.15,2013-11-18 16:32:00,
2013-11-18 18:42:00,50.5,44.9,30.20,NNE,20,9.0,10.0,81,0.00,,,0.00,0,Wunderground v.1.15,2013-11-18 16:42:00,
2013-11-18 18:52:00,50.4,44.8,30.21,North,5,9.0,10.0,81,0.00,,,0.00,0,Wunderground v.1.15,2013-11-18 16:52:00,
2013-11-18 19:02:00,50.4,44.5,30.21,NNE,18,8.0,8.0,80,0.00,,,0.00,0,Wunderground v.1.15,2013-11-18 17:02:00,
2013-11-18 19:12:00,50.3,44.4,30.21,NNE,33,8.0,9.0,80,0.00,,,0.00,0,Wunderground v.1.15,2013-11-18 17:12:00,
2013-11-18 19:22:00,50.3,44.7,30.21,NNE,32,9.0,9.0,81,0.00,,,0.00,0,Wunderground v.1.15,2013-11-18 17:22:00,
2013-11-18 19:32:00,50.2,44.6,30.20,NNE,26,7.0,9.0,81,0.00,,,0.00,0,Wunderground v.1.15,2013-11-18 17:32:00,
2013-11-18 19:42:00,50.2,44.3,30.21,NNE,30,7.0,12.0,80,0.00,,,0.00,0,Wunderground v.1.15,2013-11-18 17:42:00,
2013-11-18 19:52:00,50.4,44.5,30.21,NNE,28,9.0,9.0,80,0.00,,,0.00,0,Wunderground v.1.15,2013-11-18 17:52:00,
2013-11-18 20:02:00,50.4,44.1,30.21,North,9,9.0,9.0,79,0.00,,,0.00,0,Wunderground v.1.15,2013-11-18 18:02:00,
2013-11-18 20:12:00,50.4,44.1,30.21,NNE,31,8.0,8.0,79,0.00,,,0.00,0,Wunderground v.1.15,2013-11-18 18:12:00,
2013-11-18 20:22:00,50.4,44.1,30.21,NE,34,9.0,9.0,79,0.00,,,0.00,0,Wunderground v.1.15,2013-11-18 18:22:00,
2013-11-18 20:32:00,50.3,44.0,30.21,NNE,26,7.0,11.0,79,0.00,,,0.00,0,Wunderground v.1.15,2013-11-18 18:32:00,
2013-11-18 20:52:00,50.1,43.8,30.21,NNE,13,8.0,9.0,79,0.00,,,0.00,0,Wunderground v.1.15,2013-11-18 18:52:00,
2013-11-18 21:02:00,50.0,43.7,30.21,NE,42,8.0,9.0,79,0.00,,,0.00,0,Wunderground v.1.15,2013-11-18 19:02:00,
2013-11-18 21:12:00,50.0,43.4,30.21,North,350,7.0,7.0,78,0.00,,,0.00,0,Wunderground v.1.15,2013-11-18 19:12:00,
2013-11-18 21:22:00,50.0,43.1,30.21,North,11,8.0,11.0,77,0.00,,,0.00,0,Wunderground v.1.15,2013-11-18 19:22:00,
2013-11-18 21:32:00,50.0,43.1,30.21,NNE,21,9.0,12.0,77,0.00,,,0.00,0,Wunderground v.1.15,2013-11-18 19:32:00,
2013-11-18 21:42:00,49.9,43.0,30.21,NE,34,8.0,8.0,77,0.00,,,0.00,0,Wunderground v.1.15,2013-11-18 19:42:00,
2013-11-18 21:52:00,49.9,43.3,30.21,NE,34,7.0,7.0,78,0.00,,,0.00,0,Wunderground v.1.15,2013-11-18 19:52:00,
2013-11-18 22:02:00,49.8,43.2,30.21,NNE,20,8.0,8.0,78,0.00,,,0.00,0,Wunderground v.1.15,2013-11-18 20:02:00,
2013-11-18 22:12:00,49.7,43.5,30.21,NE,37,7.0,8.0,79,0.00,,,0.00,0,Wunderground v.1.15,2013-11-18 20:12:00,
2013-11-18 22:22:00,49.6,43.4,30.21,North,11,7.0,7.0,79,0.00,,,0.00,0,Wunderground v.1.15,2013-11-18 20:22:00,
2013-11-18 22:32:00,49.6,43.7,30.21,NNE,27,7.0,7.0,80,0.00,,,0.00,0,Wunderground v.1.15,2013-11-18 20:32:00,
2013-11-18 22:42:00,49.6,43.7,30.21,NNE,23,8.0,10.0,80,0.00,,,0.00,0,Wunderground v.1.15,2013-11-18 20:42:00,
2013-11-18 22:52:00,49.7,44.1,30.21,North,5,9.0,9.0,81,0.00,,,0.00,0,Wunderground v.1.15,2013-11-18 20:52:00,
2013-11-18 23:02:00,49.7,44.1,30.21,NE,35,7.0,7.0,81,0.00,,,0.00,0,Wunderground v.1.15,2013-11-18 21:02:00,
2013-11-18 23:12:00,49.7,44.1,30.21,NE,46,7.0,12.0,81,0.00,,,0.00,0,Wunderground v.1.15,2013-11-18 21:12:00,
2013-11-18 23:22:00,49.7,44.1,30.21,NNE,26,7.0,9.0,81,0.00,,,0.00,0,Wunderground v.1.15,2013-11-18 21:22:00,
2013-11-18 23:32:00,49.7,44.1,30.20,NNE,29,8.0,8.0,81,0.00,,,0.00,0,Wunderground v.1.15,2013-11-18 21:32:00,
2013-11-18 23:42:00,49.6,44.0,30.20,NNW,343,7.0,11.0,81,0.00,,,0.00,0,Wunderground v.1.15,2013-11-18 21:42:00,
2013-11-18 23:52:00,49.5,43.9,30.20,NNE,27,8.0,8.0,81,0.00,,,0.00,0,Wunderground v.1.15,2013-11-18 21:52:00,